Location: La B�doule
(43.2468°N, 5.5934°E)
Time: 13:09:21
(UTC+00:00)

NOSS 2-1 (E) - Pass Details

Date: 07 June 2020
Orbit: 446 x 1757 km, 63.3° (Epoch: 25 June)

Event Time Altitude Azimuth Distance (km) Brightness Sun altitude
Exits shadow 02:05:20 25° 261° (W) 944 4.1 -15.6°
Maximum altitude 02:06:47 39° 313° (NW) 699 3.9 -15.5°
Drops below altitude 10° 02:10:13 10° 24° (NNE) 1,695 7.1 -15.1°
Sets 02:12:38 0° 32° (NNE) 2,698 8.8 -14.9°
